Showing default

ASNARO-2, 43152

Orbit data source: Space-Track

ASNARO-2, 43152 is a payload satellite owned by J-spacesystems (JP) in SSO that was launched on Wed, 17 Jan 2018 UTC via an EPSILON launch vehicle from the Kagoshima Space Center University Of Tokyo (KSCUT). Payload-class satellites include a variety of spacecraft equipped with specific instruments for various scientific and technological missions. These include communications satellites like Starlink; space stations such as the ISS; scientific satellites like the Hubble; Earth observation satellites from companies like Planet Labs, Umbra, and HawkEye 360; GPS; miniature CubeSats for education and research; and military/defense satellites.

Loading next visibility...
Identifier
43152, 2018-007A
Orbit
SSO
Country
Flag of JPJP / JPN
Related business
Manufacturer
NEC Toshiba/Fuchu
Mission
Operational Commercial Radar Imaging
Bus & Motor
NEXTAR-300L, AOCS?
Mass
570 kg wet, ~500 kg dry
Launch date (UTC)
2018-01-17 (8 years ago)
Launch vehicle
EPSILON
Launch site
Kagoshima Space Center University Of Tokyo (KSCUT)
Object type
Payload
Rocket body
Debris
Shape & HBR
Cyl + 2 Pan + 1 Dish, 1.8 m
Radar Cross Section
9.327 m², Large (>1 m²)

Expand to show TLE details & history
Last TLE update: 1 day ago

TLE from 1 day ago
0 ASNARO-2
1 43152U 18007A   25348.75461556  .00009375  00000-0  40805-3 0  9996
2 43152  97.4015 353.5152 0001774  91.5931 268.5509 15.22444946439354
Epoch: 2025-12-14T18:06Z
TLE epoch observation values (Epoch: 2025-12-14T18:06:38.784Z)
Latitude
0.00001°
Longitude
-1.80939°
Altitude
501.593 km
Speed
7.614 km/s
True Right ascension
23h 34m 03s
True Declination
0° 00' 00"
Sunlit
Object was in daylight at epoch
Visualization orbit readout
Latitude
Unknown
Longitude
Unknown
Altitude
Unknown
Speed
Unknown
Apparent Right ascension
Unknown
Apparent Declination
Unknown
Sunlit
N/A
Visualization observer readout
Local Sidereal Time
02:35:16
Azimuth
Unknown
Elevation
Unknown
Doppler factor
Unknown
Orbital elements
Apogee altitude
496.65 km
Perigee altitude
494.212 km
Semi-major axis
6,873.568 km
Eccentricity
0.00018
Inclination
97.4015°
RAAN
353.5152°
Arg. of periapsis
91.5931°
True anomaly
268.53058°
Mean anomaly
268.5509°
Eccentric anomaly
268.54074°
Mean motion
3.80864 °/min
Orbital period
94.52 mins
BSTAR
0.00040805
Loading maneuver chart data...
Computing Atmospheric mass density...
Loading historical data...
Loading historical data...
Loading historical data...
Loading historical data...
Loading historical data...
Loading historical data...
Loading historical data...
Other satellites on launch #7 in the year 2018 (2018-01-17 UTC)

Documentation

Showing up to 5 results
|